Location: Newark
(58.8333°N, 23.5833°E)
Time: 04:54:09
(UTC+00:00)

METEOR M2 - Pass Details

Date: 17 December 2019
Orbit: 819 x 827 km, 98.5° (Epoch: 23 January)

Event Time Altitude Azimuth Distance (km) Brightness Sun altitude
Rises 05:38:46 0° 23° (NNE) 3,366 ? -10.5°
Reaches altitude 10° 05:41:59 10° 43° (NE) 2,428 ? -10.1°
Maximum altitude 05:45:29 17° 84° (E) 1,955 ? -9.7°
Drops below altitude 10° 05:48:57 10° 124° (SE) 2,418 ? -9.3°
Sets 05:52:08 0° 144° (SE) 3,346 ? -9.0°
